{"data":{"norad_id":52897,"intl_designator":"2022-065D","name":"STEP CUBE LAB-II","alt_names":[],"object_type":"PAYLOAD","status":"ACTIVE","operator":null,"country":"SKOR","launch_date":"2022-06-21","launch_site_code":"NSC","launch_vehicle":null,"mission":null,"orbit_class":"UNKNOWN","rcs_meters":null,"size_class":null,"mass_kg":null,"dimensions":null,"purposes":[],"wikipedia_slug":null,"has_3d_model":false,"image_url":null,"decayed_at":null,"tle_current":{"epoch":"2026-09-20T22:20:36.638304Z","epoch_age_seconds":97309,"freshness":"FRESH","line1":"1 52897U 22065D   26263.93097961  .00000537  00000+0  11301-3 0  9992","line2":"2 52897  98.2368  47.6221 0009878  85.4691 274.7639 14.63425873225501","mean_motion":14.63425873,"eccentricity":0.0009878,"inclination_deg":98.2368,"raan_deg":47.6221,"arg_perigee_deg":85.4691,"mean_anomaly_deg":274.7639,"bstar":0.00011301,"rev_number":22550,"period_min":98.399244305284,"perigee_km":675.15960595485,"apogee_km":689.10787683155,"semimajor_km":7060.2707413932,"source":"CELESTRAK","updated_at":"2026-09-21T09:00:08.760148Z"}}}